Location: CNYAC Observatory
(43.2150°N, 74.9500°W)
Time: 01:00:11
(UTC-04:00)

Meteor 1-22 Rocket - Pass Details

Date: 27 May 2018
Orbit: 786 x 941 km, 81.2° (Epoch: 18 June)

Event Time Altitude Azimuth Distance (km) Brightness Sun altitude
Rises 22:26:01 0° 355° (N) 3,333 8.3 -16.6°
Reaches altitude 10° 22:28:33 10° 2° (N) 2,382 7.3 -16.9°
Maximum altitude 22:33:38 43° 74° (ENE) 1,096 4.6 -17.4°
Enters shadow 22:35:48 29° 125° (SE) 1,413 4.8 -17.7°
